SES-11 (ECHOSTAR 105) (42967 NORAD) Tracking and Keplerian Element Data

This shows tracking and keplerian element data for the satellite.

Feedback or suggestion? Click here.




ElementValue
Catalog42967
NameSES-11 (ECHOSTAR 105)
Epoch Orbit1809
Epoch Day269.64970507
Epoch Year2022
RAAN278.1815
Inclination0.0449
Eccentricity0.0002751
Argument of Perigee270.1244
Mean Anonmoly306.085
Mean Motion1.00271898
Decay Rate-8.6E-07
L11 42967U 17063A 22269.64970507 -.00000086 00000+0 00000+0 0 9997
L22 42967 0.0449 278.1815 0002751 270.1244 306.0850 1.00271898 18090

Live tracking and technical data element details for SES-11 (ECHOSTAR 105) (NORAD 42967). SES-11 (ECHOSTAR 105) can be tracked NOW for your location showing map with azimuth and elevation plus other details from your city location.

Track the satellite on the map from your city or location and see movement details for azimuth, elevation, latitude, longitude, range, height, and movement on the map or in text.







IsCatalogInMostPopularTable: catalog: 42967, numindb: 695
Update: records affected: 1



GetName: 42967 SES-11 (ECHOSTAR 105)

Hit Count: updated at: Fri, 30 Sep 2022 03:03:49 GMT